Regional Weather Roundup
Issued by NWS

Home | Current Version | Previous Version | Graphics & Text | Print | Product List | Glossary On
Versions: 1 2 3 4 5 6 7 8 9 10 11 12 13 14 15 16 17 18 19 20 21 22 23 24 25 26 27 28 29 30 31 32 33 34 35 36 37 38 39 40 41 42 43 44 45 46 47 48 49 50
000
ASUS43 KLOT 281701
RWRIL

ILLINOIS REGIONAL WEATHER ROUNDUP
NATIONAL WEATHER SERVICE CHICAGO/ROMEOVILLE IL
1200 PM CDT FRI AUG 28 2015

NOTE: "FAIR" INDICATES FEW OR NO CLOUDS BELOW 12,000 FEET WITH NO
SIGNIFICANT WEATHER AND/OR OBSTRUCTIONS TO VISIBILITY.

* THESE STATIONS ARE NOT UNDER NWS QUALITY CONTROL. THEY ALSO MAY NOT
  REPORT WEATHER SUCH AS PRECIPITATION OR FOG.

ILZ001-002-007-009-015-016-024-281800-
NORTHWEST ILLINOIS

CITY           SKY/WX    TMP DP  RH WIND       PRES   REMARKS
MOLINE         CLOUDY    68  61  78 SE7       30.10S
STERLING*      CLOUDY    70  61  73 SE6       30.11S
$$

ILZ003-004-008-010-011-017-018-281800-
NORTH CENTRAL ILLINOIS

CITY           SKY/WX    TMP DP  RH WIND       PRES   REMARKS
ROCKFORD       CLOUDY    68  60  75 S6        30.15S
$$

ILZ005-006-012>014-019>023-281800-
NORTHEAST ILLINOIS

CITY           SKY/WX    TMP DP  RH WIND       PRES   REMARKS
CHICAGO-OHARE  CLOUDY    71  59  65 SW9       30.14S
CHICAGO-MIDWAY CLOUDY    74  60  61 S7        30.15S
AURORA         CLOUDY    69  61  75 S6        30.16S
WAUKEGAN       CLOUDY    72  61  68 VRB3      30.14S
DUPAGE AIRPORT CLOUDY    70  60  70 S7        30.15R
WHEELING       CLOUDY    73  58  59 SW9       30.15F
NORTHERLY ISL    N/A     73  57  57 S8          N/A
$$

LMZ740>746-281800-
SOUTHERN LAKE MICHIGAN

STATION/POSITION SKY/WX   TEMP    WIND        PRES    VSBY  WAVE
                          AIR SEA DIR/SP/G                  HT/PER
                          (F)     (DEG/KT/KT) (MB)    (MI)  (FT/S)
SOUTHERN BUOY              67 68  170/  8/ 10 1020.7F         1/ 4
WILMETTE HARBOR            61 55  300/  4/  6   N/A           2/ 4
HARRISON CRIB              68     160/  9/ 11   N/A
BURNHAM HARBOR             72     200/  6/  9   N/A
CALUMET HARBOR             71     210/  5/  8   N/A
BURNS HARBOR               72     190/  9/ 11 1021.3F
MICHIGAN CITY              70     170/  5/  7   N/A
MICHIGAN CITY 6N           70 70  200/  4/  6   N/A           1
ST. JOSEPH                 69 71  240/  2/  4   N/A           1
$$

ILZ025>027-034>036-040-047-049-050-058-095>099-281800-
WEST-CENTRAL ILLINOIS

CITY           SKY/WX    TMP DP  RH WIND       PRES   REMARKS
QUINCY         CLOUDY    72  60  66 S14       30.08S
MACOMB*        CLOUDY    72  62  71 S7        30.12F
$$

ILZ028>032-037-038-041>044-048-051>054-059>061-281800-
CENTRAL ILLINOIS

CITY           SKY/WX    TMP DP  RH WIND       PRES   REMARKS
DECATUR        LGT RAIN  77  58  51 SE9       30.15S
PEORIA         CLOUDY    74  61  63 SE8       30.12F
SPRINGFIELD    CLOUDY    77  61  57 S9        30.12F
TAYLORVILLE    NOT AVBL
$$

ILZ033-039-045-046-055>057-062-063-281800-
EAST-CENTRAL ILLINOIS

CITY           SKY/WX    TMP DP  RH WIND       PRES   REMARKS
CHAMPAIGN      CLOUDY    77  60  55 S6        30.16F
MATTOON        PTSUNNY   77  57  50 S8        30.15F
$$

ILZ079-100>102-281800-
SOUTHWEST ILLINOIS

CITY           SKY/WX    TMP DP  RH WIND       PRES   REMARKS
ALTON          CLOUDY    75  59  57 SE8       30.12F
BELLEVILLE     MOSUNNY   78  64  60 E9        30.11F HX  80
CAHOKIA*       MOSUNNY   78  61  55 S8        30.11F HX  80
$$

ILZ064>066-069>071-074>076-080>082-084>086-088>090-092>094-281800-
SOUTH-CENTRAL ILLINOIS

CITY           SKY/WX    TMP DP  RH WIND       PRES   REMARKS
CARBONDALE     MOSUNNY   77  59  53 E9        30.13F
MARION         MOSUNNY   79  59  50 SE7       30.15S HX  80
MT. VERNON     PTSUNNY   79  59  50 E8        30.16S HX  80
$$

ILZ067-068-072-073-078-083-087-091-281800-
SOUTHEAST ILLINOIS

CITY           SKY/WX    TMP DP  RH WIND       PRES   REMARKS
LAWRENCEVILLE  PTSUNNY   77  57  50 E7        30.17S
$$

ABBREVIATIONS USED IN REMARKS
   TC - TEMPERATURE IN CELSIUS
  WCI - WIND CHILL INDEX
   HX - HEAT INDEX
  VSB - VISIBILITY
$$



USA.gov is the U.S. government's official web portal to all federal, state and local government web resources and services.